Henderson, NV

1:53 PM PDT on March 28, 2017 (GMT -0700)
Henderson

Weather History for KHND - November, 2012

Change the Weather History Date:

Sunday, November 4, 2012

  Actual Average (KLAS) Record (KLAS)
Temperature  
Mean Temperature 64 °F -  
Max Temperature 79 °F 73 °F 85 °F (1980)
Min Temperature 50 °F 46 °F 26 °F (1956)
Growing Degree Days 14 (Base 50)    
Moisture  
Dew Point 27 °F    
Average Humidity 27    
Maximum Humidity 39    
Minimum Humidity 14    
Precipitation  
Precipitation 0.00 in - - ()
Sea Level Pressure  
Sea Level Pressure 30.12 in    
Wind  
Wind Speed 6 mph (SSE)    
Max Wind Speed 12 mph    
Max Gust Speed -    
Visibility 10 miles    
Events      
Averages and records for this station are not official NWS values.
T = Trace of Precipitation, MM = Missing Value Source: NWS Daily Summary

Daily Weather History Graph

Daily Weather History Graph

Search for Another Location

Airport or City:

Trip Planner

Search our weather history database for the weather conditions in past years. The results will help you decide how hot, cold, wet, or windy it might be!

Date:

Astronomy

Nov. 04, 2012 Rise Set
Actual Time 6:06 AM PST 4:41 PM PST
Civil Twilight 5:39 AM PST 5:07 PM PST
Nautical Twilight 5:09 AM PST 5:38 PM PST
Astronomical Twilight 4:39 AM PST 6:08 PM PST
Moon 9:24 PM PST (11/4) 10:50 AM PST (11/4)
Length of Visible Light 11h 28m
Length of Day
10h 34m
Waning Gibbous, 71% of the Moon is Illuminated
Nov 4
Waning Gibbous
Nov 6
Last Quarter
Nov 13
New
Nov 20
First Quarter
Nov 28
Full

Hourly Weather History & Observations

Time (PST) Temp. Dew Point Humidity Pressure Visibility Wind Dir Wind Speed Gust Speed Precip Events Conditions
12:56 AM 55.9 °F 24.1 °F 29% 30.06 in 10.0 mi South 8.1 mph - N/A   Clear
1:56 AM 52.9 °F 25.2 °F 34% 30.08 in 10.0 mi SSE 9.2 mph - N/A   Clear
1:56 AM 52.0 °F 25.2 °F 35% 30.08 in 10.0 mi SSE 9.2 mph - N/A   Clear
2:56 AM 52.0 °F 26.1 °F 37% 30.08 in 10.0 mi SSE 9.2 mph - N/A   Clear
3:56 AM 52.0 °F 25.2 °F 35% 30.09 in 10.0 mi SSE 11.5 mph - N/A   Clear
4:56 AM 50.9 °F 25.2 °F 37% 30.11 in 10.0 mi SSE 9.2 mph - N/A   Clear
5:56 AM 50.0 °F 26.1 °F 39% 30.14 in 10.0 mi SSE 5.8 mph - N/A   Clear
6:56 AM 52.0 °F 26.1 °F 37% 30.16 in 10.0 mi South 6.9 mph - N/A   Clear
7:56 AM 61.0 °F 29.1 °F 30% 30.17 in 10.0 mi Calm Calm - N/A   Clear
8:56 AM 68.9 °F 27.1 °F 21% 30.17 in 10.0 mi Calm Calm - N/A   Clear
9:56 AM 72.9 °F 26.1 °F 18% 30.16 in 10.0 mi Calm Calm - N/A   Clear
10:56 AM 72.9 °F 25.2 °F 17% 30.15 in 10.0 mi North 4.6 mph - N/A   Clear
11:56 AM 75.9 °F 27.1 °F 16% 30.13 in 10.0 mi Calm Calm - N/A   Clear
12:56 PM 77.0 °F 27.1 °F 16% 30.11 in 10.0 mi Calm Calm - N/A   Clear
1:56 PM 77.9 °F 26.1 °F 15% 30.10 in 10.0 mi Calm Calm - N/A   Clear
2:56 PM 79.0 °F 26.1 °F 14% 30.09 in 10.0 mi Calm Calm - N/A   Clear
3:56 PM 79.0 °F 26.1 °F 14% 30.09 in 10.0 mi Calm Calm - N/A   Clear
4:56 PM 72.0 °F 29.1 °F 20% 30.09 in 10.0 mi Calm Calm - N/A   Clear
5:56 PM 65.8 °F 30.0 °F 26% 30.12 in 10.0 mi South 6.9 mph - N/A   Clear
6:56 PM 63.9 °F 30.0 °F 28% 30.12 in 10.0 mi SSE 6.9 mph - N/A   Clear
7:56 PM 61.0 °F 29.1 °F 30% 30.11 in 10.0 mi Calm Calm - N/A   Clear
8:56 PM 61.0 °F 27.1 °F 28% 30.12 in 10.0 mi South 6.9 mph - N/A   Clear
9:56 PM 59.0 °F 28.0 °F 31% 30.12 in 10.0 mi South 8.1 mph - N/A   Clear
10:56 PM 57.9 °F 27.1 °F 31% 30.14 in 10.0 mi SSE 6.9 mph - N/A   Clear